Tracking 19827 objects as of 22-Aug-2019
HD Live streaming from Space Station
objects crossing your sky now

FENGYUN 1C DEB

Track FENGYUN 1C DEB now!
10-day predictions


NORAD ID: 31680
Int'l Code: 1999-025CCN
Perigee: 527.6 km
Apogee: 777.2 km
Inclination: 99.8 °
Period: 97.6 minutes
Semi major axis: 7023 km
RCS: 0.0075 m2 (small)
Launch date: May 10, 1999
Source: People's Republic of China (PRC)
Launch site: Taiyaun Space Center, China (TSC)

Note: This is SATELLITE DEBRIS
aabbcc
Your satellite tracking list
Your tracking list is empty




NASA's NSSDC Master Catalog

Two Line Element Set (TLE):
1 31680U 99025CCN 19229.88842755 +.00000244 +00000-0 +38909-4 0  9996
2 31680 099.8487 117.2256 0177683 227.9509 130.6459 14.74972406659052
Source of the keplerian elements: AFSPC